Data for 02/27/2018

Time Sea-Level Adjusted Pressure Absolute Pressure Temperature Relative Humidity Dew Point   
(mb) (inHg) (mb) (inHg) (C) (F) (%) (C) (F)
00:05 1016 30 845 24.95 -7.4 18.6 66 -12.8 9
00:10 1016 30 845 24.95 -7.4 18.6 65 -12.9 8.7
00:15 1016 30 845 24.95 -7.6 18.4 65 -13 8.5
00:20 1016 30 845 24.95 -7.6 18.3 65 -13.1 8.4
00:25 1016 30 845 24.95 -7.8 18 66 -13.1 8.4
00:30 1015 29.97 845 24.95 -8 17.5 67 -13.1 8.5
00:35 1015 29.97 845 24.95 -8.5 16.7 69 -13.1 8.4
00:40 1015 29.97 845 24.95 -9.1 15.5 72 -13.3 8.1
00:45 1015 29.97 845 24.95 -9.3 15.4 71 -13.5 7.7
00:50 1015 29.97 845 24.95 -9.4 15.1 73 -13.4 7.8
00:55 1015 29.97 845 24.95 -9.5 15 73 -13.4 7.9
01:00 1015 29.97 845 24.95 -9.5 14.8 75 -13.2 8.3
01:05 1015 29.97 845 24.95 -9.4 15 74 -13.3 8.1
01:10 1015 29.97 844 24.92 -9.4 15.2 74 -13.2 8.2
01:15 1015 29.97 844 24.92 -9.4 15.2 74 -13.1 8.4
01:20 1015 29.97 844 24.92 -9.4 15.1 73 -13.5 7.8
01:25 1015 29.97 844 24.92 -9.6 14.7 72 -13.7 7.3
01:30 1015 29.97 844 24.92 -9.7 14.6 72 -13.8 7.2
01:35 1015 29.97 844 24.92 -9.9 14.2 73 -13.9 7
01:40 1015 29.97 844 24.92 -10.5 13.2 76 -13.8 7.1
01:45 1015 29.97 844 24.92 -10.4 13.3 76 -13.8 7.1
01:50 1015 29.97 844 24.92 -10.1 13.8 75 -13.7 7.4
01:55 1015 29.97 844 24.92 -9.9 14.1 73 -13.9 7
02:00 1015 29.97 844 24.92 -9.5 15 70 -13.9 7
02:05 1015 29.97 844 24.92 -9.4 15.1 68 -14.2 6.4
02:10 1015 29.97 845 24.95 -9.5 14.8 67 -14.6 5.7
02:15 1015 29.97 845 24.95 -9.7 14.6 70 -14.2 6.5
02:20 1015 29.97 844 24.92 -10.3 13.4 75 -13.9 6.9
02:25 1015 29.97 844 24.92 -10.2 13.6 70 -14.7 5.6
02:30 1015 29.97 844 24.92 -9.7 14.5 69 -14.4 6.2
02:35 1015 29.97 844 24.92 -10.2 13.6 72 -14.3 6.3
02:40 1015 29.97 844 24.92 -10.7 12.7 76 -14.2 6.5
02:45 1015 29.97 844 24.92 -10 13.9 67 -15.1 4.8
02:50 1015 29.97 844 24.92 -9.4 15.1 66 -14.6 5.6
02:55 1015 29.97 844 24.92 -9.6 14.8 66 -14.8 5.3
03:00 1015 29.97 844 24.92 -9.7 14.6 66 -14.9 5.2
03:05 1015 29.97 844 24.92 -9.8 14.5 66 -14.9 5.2
03:10 1015 29.97 844 24.92 -9.8 14.3 66 -15 5
03:15 1015 29.97 844 24.92 -10.2 13.6 67 -15.2 4.6
03:20 1015 29.97 844 24.92 -10.5 13.1 68 -15.3 4.4
03:25 1015 29.97 844 24.92 -10.5 13 68 -15.3 4.5
03:30 1015 29.97 844 24.92 -10.3 13.4 67 -15.4 4.4
03:35 1015 29.97 844 24.92 -10.3 13.5 67 -15.2 4.6
03:40 1015 29.97 844 24.92 -10.5 13 68 -15.4 4.2
03:45 1015 29.97 844 24.92 -11 12.3 69 -15.5 4.1
03:50 1015 29.97 844 24.92 -10.8 12.6 69 -15.4 4.3
03:55 1015 29.97 844 24.92 -10.5 13 69 -15.2 4.7
04:00 1015 29.97 844 24.92 -10.7 12.8 69 -15.3 4.5
04:05 1015 29.97 844 24.92 -10.9 12.3 69 -15.5 4.1
04:10 1015 29.97 844 24.92 -10.8 12.6 69 -15.3 4.4
04:15 1015 29.97 844 24.92 -10.7 12.8 69 -15.3 4.4
04:20 1015 29.97 844 24.92 -10.8 12.7 69 -15.3 4.4
04:25 1015 29.97 844 24.92 -10.8 12.7 70 -15.3 4.5
04:30 1015 29.97 844 24.92 -10.7 12.7 70 -15.2 4.6
04:35 1015 29.97 844 24.92 -10.8 12.6 70 -15.2 4.6
04:40 1015 29.97 844 24.92 -11.1 11.9 70 -15.5 4.1
04:45 1015 29.97 844 24.92 -11.9 10.6 74 -15.7 3.8
04:50 1015 29.97 844 24.92 -12 10.3 74 -15.7 3.7
04:55 1015 29.97 844 24.92 -12.1 10.3 73 -15.9 3.3
05:00 1015 29.97 844 24.92 -11.8 10.7 71 -16.2 2.9
05:05 1015 29.97 844 24.92 -12 10.4 73 -16 3.2
05:10 1015 29.97 844 24.92 -12 10.4 72 -16.2 2.9
05:15 1015 29.97 844 24.92 -12.3 9.8 76 -15.7 3.7
05:20 1015 29.97 844 24.92 -12.2 10 74 -15.9 3.4
05:25 1015 29.97 844 24.92 -12.2 10 76 -15.7 3.7
05:30 1015 29.97 844 24.92 -12.5 9.6 75 -16.1 3
05:35 1015 29.97 844 24.92 -12.3 10 75 -15.8 3.6
05:40 1015 29.97 844 24.92 -12.6 9.4 76 -15.9 3.3
05:45 1015 29.97 844 24.92 -12.9 8.8 77 -16.1 3
05:50 1015 29.97 844 24.92 -13 8.6 73 -16.8 1.7
05:55 1015 29.97 844 24.92 -13.1 8.3 75 -16.7 1.9
06:00 1015 29.97 844 24.92 -13.1 8.5 77 -16.4 2.5
06:05 1015 29.97 844 24.92 -13.2 8.2 75 -16.7 1.9
06:10 1015 29.97 844 24.92 -13.2 8.3 73 -17 1.3
06:15 1015 29.97 844 24.92 -13.1 8.4 71 -17.3 0.9
06:20 1015 29.97 844 24.92 -13 8.5 72 -17.1 1.1
06:25 1015 29.97 844 24.92 -13.2 8.3 71 -17.5 0.6
06:30 1015 29.97 844 24.92 -13.1 8.4 70 -17.5 0.4
06:35 1015 29.97 844 24.92 -13.2 8.3 74 -17 1.5
06:40 1015 29.97 844 24.92 -13 8.5 77 -16.2 2.8
06:45 1015 29.97 844 24.92 -12.8 9 78 -15.9 3.3
06:50 1015 29.97 844 24.92 -12.7 9.1 76 -16.2 2.8
06:55 1015 29.97 844 24.92 -12.2 10 71 -16.4 2.5
07:00 1015 29.97 844 24.92 -12.1 10.2 73 -16.1 3.1
07:05 1015 29.97 844 24.92 -12.5 9.5 77 -15.7 3.7
07:10 1015 29.97 844 24.92 -12.5 9.4 72 -16.5 2.3
07:15 1015 29.97 844 24.92 -13.3 8.2 76 -16.6 2.1
07:20 1015 29.97 844 24.92 -13.4 7.9 77 -16.6 2.2
07:25 1015 29.97 844 24.92 -13.1 8.5 80 -15.8 3.5
07:30 1015 29.97 844 24.92 -12.6 9.4 75 -16.1 2.9
07:35 1015 29.97 844 24.92 -12.6 9.2 73 -16.6 2.1
07:40 1015 29.97 844 24.92 -12.5 9.4 72 -16.7 2
07:45 1015 29.97 844 24.92 -12.6 9.2 71 -16.9 1.5
07:50 1015 29.97 844 24.92 -12.6 9.4 72 -16.6 2.1
07:55 1015 29.97 844 24.92 -12 10.5 68 -16.8 1.8
08:00 1015 29.97 844 24.92 -12 10.4 68 -16.7 1.9
08:05 1015 29.97 844 24.92 -12 10.4 67 -16.9 1.6
08:10 1015 29.97 844 24.92 -11.9 10.5 67 -16.9 1.6
08:15 1015 29.97 844 24.92 -11.2 11.8 64 -16.7 2
08:20 1015 29.97 844 24.92 -10.5 13 65 -15.9 3.4
08:25 1015 29.97 844 24.92 -10.3 13.4 64 -16 3.3
08:30 1015 29.97 844 24.92 -10.5 13 61 -16.6 2.1
08:35 1015 29.97 844 24.92 -10.9 12.5 62 -16.7 1.9
08:40 1015 29.97 844 24.92 -10.1 13.8 61 -16.3 2.6
08:45 1015 29.97 844 24.92 -9.3 15.3 61 -15.4 4.2
08:50 1015 29.97 844 24.92 -8.6 16.5 58 -15.5 4.1
08:55 1015 29.97 844 24.92 -8 17.7 57 -15.1 4.7
09:00 1015 29.97 844 24.92 -7.7 18.1 57 -14.8 5.4
09:05 1015 29.97 844 24.92 -7.7 18.1 57 -14.9 5.3
09:10 1015 29.97 844 24.92 -7.5 18.5 57 -14.7 5.5
09:15 1015 29.97 844 24.92 -7.9 17.7 58 -14.8 5.4
09:20 1015 29.97 844 24.92 -7.8 17.9 57 -14.9 5.2
09:25 1015 29.97 844 24.92 -7.2 19.1 56 -14.5 5.8
09:30 1015 29.97 844 24.92 -6.7 19.9 53 -14.8 5.4
09:35 1015 29.97 844 24.92 -6.6 20.1 54 -14.5 5.9
09:40 1015 29.97 844 24.92 -6.4 20.5 54 -14.4 6.2
09:45 1015 29.97 844 24.92 -6.4 20.6 53 -14.5 5.8
09:50 1015 29.97 844 24.92 -6.3 20.7 53 -14.5 5.9
09:55 1015 29.97 844 24.92 -6.6 20.2 55 -14.2 6.4
10:00 1015 29.97 844 24.92 -6.5 20.3 53 -14.5 5.9
10:05 1015 29.97 844 24.92 -6.5 20.3 53 -14.5 5.8
10:10 1015 29.97 844 24.92 -6.3 20.6 52 -14.6 5.8
10:15 1015 29.97 844 24.92 -6.4 20.4 53 -14.5 5.8
10:20 1015 29.97 844 24.92 -6.3 20.6 52 -14.7 5.5
10:25 1015 29.97 844 24.92 -6.5 20.3 53 -14.6 5.7
10:30 1015 29.97 844 24.92 -6.2 20.9 52 -14.5 5.9
10:35 1015 29.97 844 24.92 -5.9 21.3 51 -14.4 6
10:40 1015 29.97 844 24.92 -6 21.3 51 -14.5 5.8
10:45 1015 29.97 844 24.92 -5.6 21.9 49 -14.7 5.6
10:50 1015 29.97 844 24.92 -5.3 22.4 48 -14.7 5.6
10:55 1015 29.97 844 24.92 -5.7 21.8 49 -14.7 5.5
11:00 1015 29.97 844 24.92 -5.9 21.4 51 -14.6 5.8
11:05 1015 29.97 844 24.92 -6.1 20.9 51 -14.6 5.6
11:10 1015 29.97 844 24.92 -6.7 19.9 54 -14.6 5.8
11:15 1015 29.97 844 24.92 -6.8 19.7 54 -14.6 5.8
11:20 1015 29.97 844 24.92 -6.8 19.8 53 -14.8 5.3
11:25 1015 29.97 844 24.92 -5.5 22 49 -14.5 5.8
11:30 1015 29.97 844 24.92 -5.2 22.6 47 -14.9 5.2
11:35 1015 29.97 844 24.92 -6.5 20.3 52 -14.8 5.4
11:40 1015 29.97 844 24.92 -5.7 21.7 49 -14.8 5.3
11:45 1015 29.97 844 24.92 -4.8 23.4 45 -14.9 5.2
11:50 1014 29.94 844 24.92 -4.3 24.3 45 -14.5 5.9
11:55 1014 29.94 844 24.92 -4.6 23.7 47 -14.4 6.1
12:00 1014 29.94 844 24.92 -4.3 24.3 46 -14.3 6.3
12:05 1014 29.94 844 24.92 -4.4 24 45 -14.7 5.5
12:10 1014 29.94 844 24.92 -4.4 24 49 -13.6 7.6
12:15 1014 29.94 843 24.89 -4.2 24.4 47 -14 6.7
12:20 1014 29.94 843 24.89 -4.3 24.2 48 -13.7 7.3
12:25 1014 29.94 843 24.89 -4.5 24 46 -14.5 5.9
12:30 1014 29.94 843 24.89 -4.4 24 45 -14.6 5.7
12:35 1014 29.94 843 24.89 -5.4 22.3 50 -14.3 6.3
12:40 1014 29.94 843 24.89 -5.3 22.5 52 -13.7 7.3
12:45 1014 29.94 843 24.89 -4.6 23.8 48 -14 6.7
12:50 1014 29.94 843 24.89 -4.3 24.2 46 -14.3 6.3
12:55 1014 29.94 843 24.89 -3.7 25.4 47 -13.4 7.9
13:00 1014 29.94 843 24.89 -3.4 25.9 47 -13.1 8.5
13:05 1014 29.94 843 24.89 -2.9 26.8 46 -13.1 8.5
13:10 1014 29.94 843 24.89 -2.5 27.5 42 -13.9 7.1
13:15 1013 29.91 843 24.89 -4.1 24.6 42 -15.1 4.7
13:20 1013 29.91 843 24.89 -2.7 27.1 41 -14.3 6.3
13:25 1013 29.91 843 24.89 -2.4 27.7 40 -14.2 6.5
13:30 1013 29.91 842 24.86 -2.4 27.7 40 -14.1 6.6
13:35 1013 29.91 842 24.86 -2.7 27.1 40 -14.5 5.9
13:40 1013 29.91 842 24.86 -2.8 26.9 42 -14 6.8
13:45 1013 29.91 842 24.86 -3 26.6 41 -14.5 5.9
13:50 1013 29.91 842 24.86 -3.4 25.9 45 -13.7 7.3
13:55 1013 29.91 842 24.86 -3.2 26.2 45 -13.5 7.6
14:00 1013 29.91 842 24.86 -2.7 27.1 43 -13.6 7.4
14:05 1013 29.91 842 24.86 -2.7 27.2 43 -13.7 7.3
14:10 1013 29.91 842 24.86 -2.3 27.8 39 -14.7 5.6
14:15 1013 29.91 842 24.86 -3.1 26.4 42 -14.2 6.4
14:20 1013 29.91 842 24.86 -2.8 27 37 -15.4 4.2
14:25 1013 29.91 842 24.86 -1.8 28.7 38 -14.3 6.3
14:30 1013 29.91 842 24.86 -1.3 29.6 36 -14.7 5.6
14:35 1013 29.91 842 24.86 -1.6 29.2 37 -14.6 5.8
14:40 1013 29.91 842 24.86 -2.2 28 42 -13.6 7.6
14:45 1013 29.91 842 24.86 -2.2 28.1 36 -15.3 4.4
14:50 1013 29.91 842 24.86 -1.8 28.8 34 -15.7 3.7
14:55 1013 29.91 842 24.86 -1.6 29.1 33 -15.9 3.4
15:00 1013 29.91 842 24.86 -2.9 26.8 39 -15 4.9
15:05 1013 29.91 842 24.86 -2.9 26.8 34 -16.6 2.2
15:10 1013 29.91 842 24.86 -3.2 26.3 38 -15.8 3.6
15:15 1013 29.91 842 24.86 -2.5 27.4 37 -15.4 4.2
15:20 1013 29.91 842 24.86 -2.6 27.4 39 -14.8 5.3
15:25 1013 29.91 842 24.86 -2.8 26.9 41 -14.5 6
15:30 1013 29.91 842 24.86 -3.5 25.7 42 -14.6 5.8
15:35 1012 29.88 842 24.86 -3.9 24.9 42 -15 5.1
15:40 1012 29.88 842 24.86 -3.7 25.4 42 -14.9 5.1
15:45 1013 29.91 842 24.86 -3.4 25.9 42 -14.6 5.8
15:50 1013 29.91 842 24.86 -2.8 26.9 39 -14.9 5.2
15:55 1013 29.91 842 24.86 -2.8 27 39 -15 5
16:00 1013 29.91 842 24.86 -2.7 27.2 39 -14.8 5.4
16:05 1013 29.91 842 24.86 -2.8 27 39 -14.9 5.1
16:10 1013 29.91 842 24.86 -2.8 27 40 -14.6 5.7
16:15 1013 29.91 842 24.86 -3.4 25.8 44 -14.1 6.7
16:20 1013 29.91 842 24.86 -3.1 26.4 39 -15.1 4.8
16:25 1013 29.91 842 24.86 -3 26.6 40 -14.9 5.2
16:30 1013 29.91 842 24.86 -3.2 26.3 40 -15.1 4.9
16:35 1013 29.91 842 24.86 -3.3 26.1 40 -15 5
16:40 1013 29.91 842 24.86 -3.1 26.4 40 -14.9 5.1
16:45 1013 29.91 842 24.86 -3.3 26.1 40 -15.2 4.7
16:50 1013 29.91 842 24.86 -3.3 26 40 -15.1 4.9
16:55 1013 29.91 842 24.86 -3.2 26.3 41 -14.7 5.5
17:00 1013 29.91 842 24.86 -3 26.6 39 -15.2 4.7
17:05 1013 29.91 842 24.86 -3 26.6 40 -14.7 5.5
17:10 1013 29.91 842 24.86 -3 26.6 37 -15.6 3.9
17:15 1013 29.91 842 24.86 -3 26.7 43 -13.9 6.9
17:20 1013 29.91 842 24.86 -3.7 25.3 44 -14.3 6.3
17:25 1013 29.91 842 24.86 -3.9 24.9 45 -14.1 6.6
17:30 1013 29.91 842 24.86 -3.9 25 46 -13.9 7
17:35 1013 29.91 842 24.86 -3.5 25.7 44 -14.2 6.4
17:40 1013 29.91 842 24.86 -3.2 26.2 41 -14.8 5.3
17:45 1013 29.91 842 24.86 -3.2 26.3 42 -14.5 5.9
17:50 1013 29.91 842 24.86 -3 26.6 41 -14.5 5.8
17:55 1013 29.91 842 24.86 -3 26.7 43 -14 6.8
18:00 1013 29.91 842 24.86 -3.3 26.1 41 -14.7 5.6
18:05 1013 29.91 842 24.86 -3.5 25.6 39 -15.5 4.2
18:10 1013 29.91 842 24.86 -3.7 25.4 39 -15.7 3.7
18:15 1013 29.91 842 24.86 -3.7 25.4 41 -15.1 4.8
18:20 1013 29.91 842 24.86 -3.6 25.5 41 -15.1 4.9
18:25 1013 29.91 842 24.86 -3.5 25.7 41 -14.9 5.2
18:30 1013 29.91 842 24.86 -3.6 25.5 42 -14.9 5.2
18:35 1013 29.91 842 24.86 -3.7 25.3 41 -15.2 4.6
18:40 1013 29.91 842 24.86 -3.8 25.1 42 -14.9 5.3
18:45 1013 29.91 842 24.86 -3.8 25.1 42 -15 5
18:50 1013 29.91 842 24.86 -3.9 25 42 -15 5
18:55 1013 29.91 842 24.86 -3.9 25.1 42 -14.9 5.2
19:00 1013 29.91 843 24.89 -3.8 25.1 43 -14.6 5.7
19:05 1013 29.91 843 24.89 -3.9 25 42 -15.1 4.8
19:10 1013 29.91 843 24.89 -4 24.9 42 -14.9 5.1
19:15 1013 29.91 843 24.89 -3.9 25 42 -15.2 4.7
19:20 1013 29.91 843 24.89 -3.9 25 40 -15.5 4.2
19:25 1013 29.91 843 24.89 -3.9 25 41 -15.2 4.7
19:30 1013 29.91 843 24.89 -4 24.8 42 -15.1 4.8
19:35 1013 29.91 843 24.89 -4.1 24.6 42 -15.1 4.8
19:40 1013 29.91 843 24.89 -4.2 24.4 42 -15.4 4.2
19:45 1013 29.91 843 24.89 -4.3 24.2 41 -15.7 3.7
19:50 1014 29.94 843 24.89 -4.4 24.2 43 -15.2 4.7
19:55 1014 29.94 843 24.89 -4.4 24 43 -15.3 4.5
20:00 1014 29.94 843 24.89 -4.5 23.9 41 -15.9 3.5
20:05 1014 29.94 843 24.89 -4.6 23.7 42 -15.5 4
20:10 1014 29.94 843 24.89 -4.7 23.5 45 -14.9 5.2
20:15 1014 29.94 843 24.89 -5.3 22.4 45 -15.5 4.2
20:20 1014 29.94 843 24.89 -6 21.2 49 -15.1 4.9
20:25 1014 29.94 843 24.89 -6.3 20.6 50 -15 4.9
20:30 1014 29.94 843 24.89 -6.2 20.8 50 -15 5
20:35 1014 29.94 843 24.89 -6 21.3 48 -15.4 4.3
20:40 1014 29.94 843 24.89 -5.6 21.8 44 -16.1 3.1
20:45 1014 29.94 843 24.89 -5.4 22.2 46 -15.4 4.3
20:50 1014 29.94 843 24.89 -5.3 22.4 46 -15.1 4.8
20:55 1014 29.94 843 24.89 -5.2 22.6 46 -15 4.9
21:00 1014 29.94 843 24.89 -5.2 22.7 45 -15.2 4.6
21:05 1014 29.94 843 24.89 -5.2 22.7 45 -15.4 4.4
21:10 1014 29.94 843 24.89 -5.1 22.9 45 -15.3 4.4
21:15 1014 29.94 843 24.89 -5.3 22.5 46 -15.3 4.5
21:20 1014 29.94 843 24.89 -5.5 22 46 -15.4 4.3
21:25 1014 29.94 844 24.92 -5.9 21.5 48 -15.1 4.8
21:30 1014 29.94 844 24.92 -6.2 20.8 51 -14.9 5.2
21:35 1014 29.94 844 24.92 -7 19.5 51 -15.5 4.2
21:40 1015 29.97 844 24.92 -7.8 18 56 -15.1 4.7
21:45 1015 29.97 844 24.92 -7.7 18.1 56 -15 5
21:50 1015 29.97 844 24.92 -7.7 18.2 60 -14.2 6.4
21:55 1015 29.97 844 24.92 -7.9 17.7 61 -14.3 6.3
22:00 1015 29.97 844 24.92 -7.9 17.8 61 -14.3 6.3
22:05 1015 29.97 844 24.92 -7.6 18.3 59 -14.4 6
22:10 1015 29.97 844 24.92 -6.9 19.5 52 -15.2 4.6
22:15 1015 29.97 844 24.92 -6.4 20.4 50 -15.2 4.7
22:20 1015 29.97 844 24.92 -6.2 20.9 49 -15.3 4.5
22:25 1015 29.97 844 24.92 -6.1 21 50 -14.9 5.2
22:30 1015 29.97 844 24.92 -6.3 20.7 53 -14.5 6
22:35 1015 29.97 844 24.92 -7.2 19 58 -14.1 6.6
22:40 1015 29.97 844 24.92 -7.7 18.1 56 -15 5
22:45 1015 29.97 844 24.92 -7.7 18.2 61 -14 6.8
22:50 1015 29.97 844 24.92 -8.2 17.3 60 -14.5 5.8
22:55 1015 29.97 844 24.92 -8.4 16.8 60 -14.9 5.2
23:00 1015 29.97 844 24.92 -8.6 16.6 57 -15.6 3.9
23:05 1014 29.94 844 24.92 -8.5 16.8 63 -14.4 6.1
23:10 1014 29.94 843 24.89 -9.6 14.8 62 -15.5 4.1
23:15 1014 29.94 843 24.89 -9 15.7 62 -15.1 4.8
23:20 1014 29.94 843 24.89 -8.9 16 57 -15.9 3.4
23:25 1014 29.94 843 24.89 -8 17.6 54 -15.8 3.5
23:30 1014 29.94 843 24.89 -8.6 16.5 57 -15.7 3.8
23:35 1014 29.94 843 24.89 -8.9 15.9 56 -16.1 2.9
23:40 1014 29.94 843 24.89 -9.3 15.3 57 -16.2 2.8
23:45 1014 29.94 844 24.92 -9.3 15.4 57 -16.3 2.7
23:50 1014 29.94 844 24.92 -9.4 15.1 57 -16.4 2.5
23:55 1014 29.94 844 24.92 -9.5 14.9 57 -16.6 2.1
24:00 1014 29.94 844 24.92 -9.6 14.7 59 -16.2 2.8